Location: Dattensoll
(49.9928°N, 9.8954°E)
Time: 23:16:20
(UTC+00:00)

ARIANE 6 FM1 Upper Stage - Visible Passes

Search period start: 17 January 2026 00:00
Search period end: 27 January 2026 00:00
Orbit: 522 x 610 km, 62.0° (Epoch: 17 January)

Date Brightness Start Highest point End Pass type
(mag) Time Alt. Az. Time Alt. Az. Time Alt. Az.
21 Jan 4.6 17:36:19 10° SSE 17:37:46 14° SE 17:37:46 14° SE visible
21 Jan 5.3 19:13:08 10° SW 19:13:50 15° SW 19:13:50 15° SW visible
22 Jan 4.0 17:35:36 10° S 17:38:39 21° ESE 17:38:39 21° ESE visible
22 Jan 5.0 19:13:24 10° WSW 19:14:43 20° WSW 19:14:43 20° WSW visible
23 Jan 3.5 17:35:12 10° S 17:38:45 29° SE 17:39:27 28° ESE visible
23 Jan 4.8 19:13:44 10° WSW 19:15:30 23° W 19:15:30 23° W visible
24 Jan 3.1 17:35:00 10° SSW 17:38:50 41° SE 17:40:10 31° E visible
24 Jan 4.8 19:14:10 10° WSW 19:16:13 24° W 19:16:13 24° W visible
25 Jan 2.6 17:34:57 10° SSW 17:38:56 59° SE 17:40:47 29° ENE visible
25 Jan 4.8 19:14:39 10° W 19:16:49 23° WNW 19:16:49 23° WNW visible
26 Jan 2.5 17:35:02 10° SW 17:39:05 82° SE 17:41:20 25° NE visible
26 Jan 4.9 19:15:12 10° W 19:17:22 21° NW 19:17:22 21° NW visible
